CZ-7 R/B (48804 NORAD) Tracking and Keplerian Element Data

This shows tracking and keplerian element data for the satellite.

Feedback or suggestion? Click here.




ElementValue
Catalog48804
NameCZ-7 R/B
Epoch Orbit267
Epoch Day166.06783551
Epoch Year2021
RAAN287.8182
Inclination41.467
Eccentricity0.0024391
Argument of Perigee308.6918
Mean Anonmoly52.4181
Mean Motion16.43917695
Decay Rate0.06006853
L11 48804U 21046B 21166.06783551 .06006853 83937-5 13439-3 0 9994
L22 48804 41.4670 287.8182 0024391 308.6918 52.4181 16.43917695 2675



Live tracking and technical data element details for CZ-7 R/B (NORAD 48804). CZ-7 R/B can be tracked NOW for your location showing map with azimuth and elevation plus other details from your city location.







IsCatalogInMostPopularTable: catalog: 48804, numindb: 88
Update: records affected: 1



GetName: 48804 CZ-7 R/B

Hit Count: updated at: Sun, 11 Jun 2023 00:08:14 GMT